Time,TemperatureF,DewpointF,PressureIn,WindDirection,WindDirectionDegrees,WindSpeedMPH,WindSpeedGustMPH,Humidity,HourlyPrecipIn,Conditions,Clouds,dailyrainin,SoftwareType,DateUTC
2013-07-04 00:00:00,73.3,70.8,30.10,East,91,3.0,8.0,92,0.01,,SKC,0.45,VWS V14.01,2013-07-04 04:00:00,
2013-07-04 00:01:00,73.3,70.8,30.10,East,82,4.0,5.0,92,0.01,,SKC,0.00,VWS V14.01,2013-07-04 04:01:00,
2013-07-04 00:06:00,73.3,70.8,30.10,ENE,68,3.0,9.0,92,0.01,,SKC,0.00,VWS V14.01,2013-07-04 04:06:00,
2013-07-04 00:11:00,73.3,70.8,30.09,NE,54,2.0,9.0,92,0.01,,SKC,0.00,VWS V14.01,2013-07-04 04:11:00,
2013-07-04 00:16:00,73.4,70.9,30.09,SE,129,1.0,9.0,92,0.01,,SKC,0.00,VWS V14.01,2013-07-04 04:16:00,
2013-07-04 00:21:00,73.5,70.7,30.09,East,84,2.0,9.0,91,0.01,,SKC,0.00,VWS V14.01,2013-07-04 04:21:00,
2013-07-04 00:26:00,73.6,70.8,30.09,East,94,0.0,9.0,91,0.01,,SKC,0.00,VWS V14.01,2013-07-04 04:26:00,
2013-07-04 00:31:00,73.6,70.8,30.09,ENE,61,0.0,4.0,91,0.00,,SKC,0.00,VWS V14.01,2013-07-04 04:31:00,
2013-07-04 00:36:00,73.7,70.9,30.09,East,91,0.0,7.0,91,0.00,,SKC,0.00,VWS V14.01,2013-07-04 04:36:00,
2013-07-04 00:41:00,73.7,71.2,30.09,ESE,103,6.0,8.0,92,0.00,,SKC,0.00,VWS V14.01,2013-07-04 04:41:00,
2013-07-04 00:46:00,73.7,71.2,30.09,SE,144,1.0,9.0,92,0.00,,SKC,0.00,VWS V14.01,2013-07-04 04:46:00,
2013-07-04 00:51:00,73.7,71.2,30.09,ESE,105,4.0,9.0,92,0.00,,SKC,0.00,VWS V14.01,2013-07-04 04:51:00,
2013-07-04 00:56:00,73.7,71.2,30.09,East,99,4.0,11.0,92,0.00,,SKC,0.00,VWS V14.01,2013-07-04 04:56:00,
2013-07-04 01:01:00,73.6,71.1,30.09,East,87,5.0,5.0,92,0.00,,SKC,0.00,VWS V14.01,2013-07-04 05:01:00,
2013-07-04 01:06:00,73.6,71.1,30.08,East,96,2.0,5.0,92,0.00,,SKC,0.00,VWS V14.01,2013-07-04 05:06:00,
2013-07-04 01:11:00,73.7,71.2,30.09,SE,128,0.0,5.0,92,0.00,,SKC,0.00,VWS V14.01,2013-07-04 05:11:00,
2013-07-04 01:16:00,73.6,71.1,30.08,ESE,102,1.0,6.0,92,0.00,,SKC,0.00,VWS V14.01,2013-07-04 05:16:00,
2013-07-04 01:21:00,73.6,71.5,30.08,East,92,0.0,6.0,93,0.00,,SKC,0.00,VWS V14.01,2013-07-04 05:21:00,
2013-07-04 01:26:00,73.5,71.4,30.08,ENE,60,0.0,6.0,93,0.00,,SKC,0.00,VWS V14.01,2013-07-04 05:26:00,
2013-07-04 01:31:00,73.3,71.2,30.08,NE,51,2.0,2.0,93,0.00,,SKC,0.00,VWS V14.01,2013-07-04 05:31:00,
2013-07-04 01:36:00,73.3,71.2,30.08,ENE,61,0.0,7.0,93,0.00,,SKC,0.00,VWS V14.01,2013-07-04 05:36:00,
2013-07-04 01:41:00,73.2,71.1,30.08,ENE,58,5.0,7.0,93,0.00,,SKC,0.00,VWS V14.01,2013-07-04 05:41:00,
2013-07-04 01:46:00,73.1,71.0,30.08,NE,47,0.0,7.0,93,0.00,,SKC,0.00,VWS V14.01,2013-07-04 05:46:00,
2013-07-04 01:51:00,73.1,71.3,30.08,NE,54,0.0,7.0,94,0.00,,SKC,0.00,VWS V14.01,2013-07-04 05:51:00,
2013-07-04 01:56:00,73.0,71.2,30.08,NW,318,0.0,7.0,94,0.00,,SKC,0.00,VWS V14.01,2013-07-04 05:56:00,
2013-07-04 02:01:00,73.0,71.2,30.08,ENE,75,0.0,0.0,94,0.00,,SKC,0.00,VWS V14.01,2013-07-04 06:01:00,
2013-07-04 02:06:00,72.9,71.1,30.08,NE,35,2.0,4.0,94,0.00,,SKC,0.00,VWS V14.01,2013-07-04 06:06:00,
2013-07-04 02:11:00,72.9,71.1,30.07,NNE,30,5.0,7.0,94,0.00,,SKC,0.00,VWS V14.01,2013-07-04 06:11:00,
2013-07-04 02:16:00,72.9,71.1,30.07,NE,48,5.0,7.0,94,0.00,,SKC,0.00,VWS V14.01,2013-07-04 06:16:00,
2013-07-04 02:21:00,72.8,71.0,30.07,ENE,63,6.0,9.0,94,0.00,,SKC,0.00,VWS V14.01,2013-07-04 06:21:00,
2013-07-04 02:26:00,72.9,71.1,30.07,NE,51,1.0,9.0,94,0.00,,SKC,0.00,VWS V14.01,2013-07-04 06:26:00,
2013-07-04 02:31:00,72.9,71.1,30.07,East,88,0.0,5.0,94,0.00,,SKC,0.00,VWS V14.01,2013-07-04 06:31:00,
2013-07-04 02:36:00,72.9,71.1,30.07,NE,51,0.0,5.0,94,0.00,,SKC,0.00,VWS V14.01,2013-07-04 06:36:00,
2013-07-04 02:41:00,72.8,71.0,30.07,NE,38,0.0,6.0,94,0.00,,SKC,0.00,VWS V14.01,2013-07-04 06:41:00,
2013-07-04 02:46:00,72.8,71.0,30.06,ENE,72,0.0,6.0,94,0.00,,SKC,0.00,VWS V14.01,2013-07-04 06:46:00,
2013-07-04 02:51:00,72.8,71.0,30.06,ENE,75,0.0,6.0,94,0.00,,SKC,0.00,VWS V14.01,2013-07-04 06:51:00,
2013-07-04 02:56:00,72.8,71.0,30.06,ENE,72,1.0,6.0,94,0.00,,SKC,0.00,VWS V14.01,2013-07-04 06:56:00,
2013-07-04 03:01:00,72.8,71.0,30.05,East,80,0.0,2.0,94,0.00,,SKC,0.00,VWS V14.01,2013-07-04 07:01:00,
2013-07-04 03:06:00,72.8,71.0,30.05,East,82,0.0,3.0,94,0.00,,SKC,0.00,VWS V14.01,2013-07-04 07:06:00,
2013-07-04 03:11:00,72.7,70.9,30.05,NE,55,1.0,5.0,94,0.00,,SKC,0.00,VWS V14.01,2013-07-04 07:11:00,
2013-07-04 03:16:00,72.7,70.9,30.05,East,84,1.0,5.0,94,0.00,,SKC,0.00,VWS V14.01,2013-07-04 07:16:00,
2013-07-04 03:21:00,72.7,71.2,30.05,NNW,344,0.0,5.0,95,0.00,,SKC,0.00,VWS V14.01,2013-07-04 07:21:00,
2013-07-04 03:26:00,72.7,70.9,30.05,ENE,74,0.0,5.0,94,0.00,,SKC,0.00,VWS V14.01,2013-07-04 07:26:00,
2013-07-04 03:31:00,72.6,71.1,30.05,ENE,68,0.0,1.0,95,0.00,,SKC,0.00,VWS V14.01,2013-07-04 07:31:00,
2013-07-04 03:36:00,72.6,71.1,30.05,ENE,67,1.0,3.0,95,0.00,,SKC,0.00,VWS V14.01,2013-07-04 07:36:00,
2013-07-04 03:41:00,72.6,71.1,30.05,NE,44,0.0,3.0,95,0.00,,SKC,0.00,VWS V14.01,2013-07-04 07:41:00,
2013-07-04 03:46:00,72.5,71.0,30.05,ENE,65,1.0,3.0,95,0.00,,SKC,0.00,VWS V14.01,2013-07-04 07:46:00,
2013-07-04 03:51:00,72.6,71.1,30.05,ENE,59,0.0,5.0,95,0.00,,SKC,0.00,VWS V14.01,2013-07-04 07:51:00,
2013-07-04 03:56:00,72.5,71.0,30.05,ENE,65,0.0,5.0,95,0.00,,SKC,0.00,VWS V14.01,2013-07-04 07:56:00,
2013-07-04 04:01:00,72.6,71.1,30.05,East,81,0.0,2.0,95,0.00,,SKC,0.00,VWS V14.01,2013-07-04 08:01:00,
2013-07-04 04:06:00,72.6,71.1,30.05,NE,46,1.0,6.0,95,0.00,,SKC,0.00,VWS V14.01,2013-07-04 08:06:00,
2013-07-04 04:11:00,72.6,71.1,30.05,East,85,2.0,6.0,95,0.00,,SKC,0.00,VWS V14.01,2013-07-04 08:11:00,
2013-07-04 04:16:00,72.7,71.2,30.04,ENE,64,1.0,6.0,95,0.00,,SKC,0.00,VWS V14.01,2013-07-04 08:16:00,
2013-07-04 04:21:00,72.7,71.2,30.04,East,91,3.0,6.0,95,0.00,,SKC,0.00,VWS V14.01,2013-07-04 08:21:00,
2013-07-04 04:26:00,72.7,71.2,30.05,NE,46,4.0,6.0,95,0.00,,SKC,0.00,VWS V14.01,2013-07-04 08:26:00,
2013-07-04 04:31:00,72.7,71.2,30.05,NE,37,4.0,4.0,95,0.00,,SKC,0.00,VWS V14.01,2013-07-04 08:31:00,
2013-07-04 04:36:00,72.6,71.1,30.05,NE,40,0.0,4.0,95,0.00,,SKC,0.00,VWS V14.01,2013-07-04 08:36:00,
2013-07-04 04:41:00,72.6,71.1,30.05,ENE,72,2.0,5.0,95,0.00,,SKC,0.00,VWS V14.01,2013-07-04 08:41:00,
2013-07-04 04:46:00,72.6,71.1,30.05,ENE,62,1.0,7.0,95,0.00,,SKC,0.00,VWS V14.01,2013-07-04 08:46:00,
2013-07-04 04:51:00,72.6,71.1,30.05,East,99,1.0,7.0,95,0.00,,SKC,0.00,VWS V14.01,2013-07-04 08:51:00,
2013-07-04 04:56:00,72.6,70.8,30.05,NE,42,4.0,7.0,94,0.00,,SKC,0.00,VWS V14.01,2013-07-04 08:56:00,
2013-07-04 05:01:00,72.6,70.8,30.05,ENE,72,0.0,3.0,94,0.00,,SKC,0.00,VWS V14.01,2013-07-04 09:01:00,
2013-07-04 05:06:00,72.6,70.8,30.05,NE,35,1.0,3.0,94,0.00,,SKC,0.00,VWS V14.01,2013-07-04 09:06:00,
2013-07-04 05:11:00,72.6,70.8,30.05,NE,45,1.0,4.0,94,0.00,,SKC,0.00,VWS V14.01,2013-07-04 09:11:00,
2013-07-04 05:16:00,72.6,70.8,30.05,NNE,23,5.0,5.0,94,0.00,,SKC,0.00,VWS V14.01,2013-07-04 09:16:00,
2013-07-04 05:21:00,72.6,70.8,30.05,NE,37,0.0,5.0,94,0.00,,SKC,0.00,VWS V14.01,2013-07-04 09:21:00,
2013-07-04 05:26:00,72.7,70.9,30.05,NE,55,1.0,9.0,94,0.00,,SKC,0.00,VWS V14.01,2013-07-04 09:26:00,
2013-07-04 05:31:00,72.7,70.9,30.05,NE,37,3.0,5.0,94,0.00,,SKC,0.00,VWS V14.01,2013-07-04 09:31:00,
2013-07-04 05:36:00,72.7,70.9,30.05,NE,54,4.0,7.0,94,0.00,,SKC,0.00,VWS V14.01,2013-07-04 09:36:00,
2013-07-04 05:41:00,72.8,71.0,30.05,ENE,69,3.0,7.0,94,0.00,,SKC,0.00,VWS V14.01,2013-07-04 09:41:00,
2013-07-04 05:46:00,72.8,71.0,30.05,East,83,4.0,7.0,94,0.00,,SKC,0.00,VWS V14.01,2013-07-04 09:46:00,
2013-07-04 05:51:00,72.8,71.0,30.05,NE,44,4.0,7.0,94,0.00,,SKC,0.00,VWS V14.01,2013-07-04 09:51:00,
2013-07-04 05:56:00,72.8,71.0,30.05,NE,40,0.0,7.0,94,0.00,,SKC,0.00,VWS V14.01,2013-07-04 09:56:00,
2013-07-04 06:01:00,72.8,71.0,30.05,NE,51,3.0,6.0,94,0.00,,SKC,0.00,VWS V14.01,2013-07-04 10:01:00,
2013-07-04 06:06:00,72.8,71.0,30.05,NE,49,0.0,6.0,94,0.00,,SKC,0.00,VWS V14.01,2013-07-04 10:06:00,
2013-07-04 06:11:00,72.8,71.0,30.05,ENE,69,3.0,6.0,94,0.00,,SKC,0.00,VWS V14.01,2013-07-04 10:11:00,
2013-07-04 06:16:00,72.9,71.1,30.05,NE,55,6.0,7.0,94,0.00,,SKC,0.00,VWS V14.01,2013-07-04 10:16:00,
2013-07-04 06:21:00,73.0,71.2,30.06,NE,53,3.0,8.0,94,0.00,,SKC,0.00,VWS V14.01,2013-07-04 10:21:00,
2013-07-04 06:26:00,73.0,71.2,30.06,ENE,76,5.0,8.0,94,0.00,,SKC,0.00,VWS V14.01,2013-07-04 10:26:00,
2013-07-04 06:31:00,73.1,71.3,30.06,NE,51,1.0,4.0,94,0.00,,SKC,0.00,VWS V14.01,2013-07-04 10:31:00,
2013-07-04 06:36:00,73.1,71.3,30.06,ENE,64,4.0,7.0,94,0.00,,SKC,0.00,VWS V14.01,2013-07-04 10:36:00,
2013-07-04 06:41:00,73.1,71.3,30.06,NE,46,1.0,7.0,94,0.00,,SKC,0.00,VWS V14.01,2013-07-04 10:41:00,
2013-07-04 06:46:00,73.2,71.4,30.06,NE,40,4.0,8.0,94,0.00,,SKC,0.00,VWS V14.01,2013-07-04 10:46:00,
2013-07-04 06:51:00,73.3,71.5,30.07,NNE,22,1.0,9.0,94,0.00,,SKC,0.00,VWS V14.01,2013-07-04 10:51:00,
2013-07-04 06:56:00,73.4,71.6,30.07,NE,47,5.0,9.0,94,0.00,,SKC,0.00,VWS V14.01,2013-07-04 10:56:00,
2013-07-04 07:01:00,73.5,71.7,30.07,ESE,114,2.0,7.0,94,0.00,,SKC,0.00,VWS V14.01,2013-07-04 11:01:00,
2013-07-04 07:06:00,73.6,71.8,30.07,East,79,2.0,7.0,94,0.00,,SKC,0.00,VWS V14.01,2013-07-04 11:06:00,
2013-07-04 07:11:00,73.7,71.9,30.07,NE,48,4.0,8.0,94,0.00,,SKC,0.00,VWS V14.01,2013-07-04 11:11:00,
2013-07-04 07:16:00,73.9,72.1,30.07,NE,49,2.0,8.0,94,0.00,,SKC,0.00,VWS V14.01,2013-07-04 11:16:00,
2013-07-04 07:21:00,74.0,72.2,30.07,ENE,68,4.0,10.0,94,0.00,,SKC,0.00,VWS V14.01,2013-07-04 11:21:00,
2013-07-04 07:26:00,74.3,72.2,30.07,ENE,77,1.0,10.0,93,0.00,,SKC,0.00,VWS V14.01,2013-07-04 11:26:00,
2013-07-04 07:31:00,74.5,72.3,30.07,ENE,62,5.0,5.0,93,0.00,,SKC,0.00,VWS V14.01,2013-07-04 11:31:00,
2013-07-04 07:36:00,74.5,72.3,30.07,ENE,57,3.0,10.0,93,0.00,,SKC,0.00,VWS V14.01,2013-07-04 11:36:00,
2013-07-04 07:41:00,74.6,72.4,30.08,NE,54,1.0,10.0,93,0.00,,SKC,0.00,VWS V14.01,2013-07-04 11:41:00,
2013-07-04 07:46:00,75.1,72.9,30.08,NE,35,5.0,10.0,93,0.00,,SKC,0.00,VWS V14.01,2013-07-04 11:46:00,
2013-07-04 07:51:00,75.7,73.5,30.08,East,98,2.0,10.0,93,0.00,,SKC,0.00,VWS V14.01,2013-07-04 11:51:00,
2013-07-04 07:56:00,76.1,73.6,30.08,ENE,65,2.0,10.0,92,0.00,,SKC,0.00,VWS V14.01,2013-07-04 11:56:00,
2013-07-04 08:01:00,76.5,73.7,30.08,ENE,65,5.0,7.0,91,0.00,,SKC,0.00,VWS V14.01,2013-07-04 12:01:00,
2013-07-04 08:06:00,76.8,74.0,30.08,ENE,72,4.0,9.0,91,0.00,,SKC,0.00,VWS V14.01,2013-07-04 12:06:00,
2013-07-04 08:11:00,77.2,74.4,30.08,ESE,120,3.0,9.0,91,0.00,,SKC,0.00,VWS V14.01,2013-07-04 12:11:00,
2013-07-04 08:16:00,77.5,74.3,30.08,NE,35,4.0,9.0,90,0.00,,SKC,0.00,VWS V14.01,2013-07-04 12:16:00,
2013-07-04 08:21:00,77.9,74.7,30.08,East,83,8.0,11.0,90,0.00,,SKC,0.00,VWS V14.01,2013-07-04 12:21:00,
2013-07-04 08:26:00,78.2,74.7,30.08,NE,44,5.0,12.0,89,0.00,,SKC,0.00,VWS V14.01,2013-07-04 12:26:00,
2013-07-04 08:31:00,78.5,75.0,30.08,NE,36,2.0,11.0,89,0.00,,SKC,0.00,VWS V14.01,2013-07-04 12:31:00,
2013-07-04 08:36:00,79.0,75.5,30.09,East,92,2.0,11.0,89,0.00,,SKC,0.00,VWS V14.01,2013-07-04 12:36:00,
2013-07-04 08:41:00,79.2,75.3,30.09,East,82,8.0,11.0,88,0.00,,SKC,0.00,VWS V14.01,2013-07-04 12:41:00,
2013-07-04 08:46:00,79.4,75.5,30.09,ENE,75,0.0,11.0,88,0.00,,SKC,0.00,VWS V14.01,2013-07-04 12:46:00,
2013-07-04 08:51:00,79.8,75.6,30.09,ENE,69,7.0,11.0,87,0.00,,SKC,0.00,VWS V14.01,2013-07-04 12:51:00,
2013-07-04 08:56:00,80.0,75.8,30.09,ESE,117,11.0,11.0,87,0.00,,SKC,0.00,VWS V14.01,2013-07-04 12:56:00,
2013-07-04 09:01:00,80.1,75.9,30.09,ESE,118,8.0,11.0,87,0.00,,SKC,0.00,VWS V14.01,2013-07-04 13:01:00,
2013-07-04 09:06:00,80.4,75.8,30.10,ESE,123,5.0,12.0,86,0.00,,SKC,0.00,VWS V14.01,2013-07-04 13:06:00,
2013-07-04 09:11:00,80.8,76.2,30.09,ESE,103,5.0,15.0,86,0.00,,SKC,0.00,VWS V14.01,2013-07-04 13:11:00,
2013-07-04 09:16:00,81.0,76.4,30.09,NNE,30,5.0,15.0,86,0.00,,SKC,0.00,VWS V14.01,2013-07-04 13:16:00,
2013-07-04 09:21:00,81.4,76.5,30.09,ESE,114,6.0,15.0,85,0.00,,SKC,0.00,VWS V14.01,2013-07-04 13:21:00,
2013-07-04 09:26:00,81.7,76.4,30.09,East,90,10.0,15.0,84,0.00,,SKC,0.00,VWS V14.01,2013-07-04 13:26:00,
2013-07-04 09:31:00,81.9,76.2,30.09,NE,50,6.0,11.0,83,0.00,,SKC,0.00,VWS V14.01,2013-07-04 13:31:00,
2013-07-04 09:36:00,82.3,76.6,30.10,ESE,108,0.0,11.0,83,0.00,,SKC,0.00,VWS V14.01,2013-07-04 13:36:00,
2013-07-04 09:41:00,82.7,76.7,30.09,East,89,6.0,11.0,82,0.00,,SKC,0.00,VWS V14.01,2013-07-04 13:41:00,
2013-07-04 09:46:00,82.7,76.7,30.09,NE,48,3.0,12.0,82,0.00,,SKC,0.00,VWS V14.01,2013-07-04 13:46:00,
2013-07-04 09:51:00,82.9,76.5,30.09,ESE,114,8.0,14.0,81,0.00,,SKC,0.00,VWS V14.01,2013-07-04 13:51:00,
2013-07-04 09:56:00,83.0,76.6,30.09,ESE,107,10.0,15.0,81,0.00,,SKC,0.00,VWS V14.01,2013-07-04 13:56:00,
2013-07-04 10:01:00,82.9,76.1,30.09,East,83,6.0,22.0,80,0.00,,SKC,0.00,VWS V14.01,2013-07-04 14:01:00,
2013-07-04 10:06:00,83.3,77.2,30.09,SE,126,6.0,22.0,82,0.00,,SKC,0.00,VWS V14.01,2013-07-04 14:06:00,
2013-07-04 10:11:00,83.7,76.5,30.09,ESE,119,7.0,22.0,79,0.00,,SKC,0.00,VWS V14.01,2013-07-04 14:11:00,
2013-07-04 10:16:00,83.9,76.7,30.09,ESE,114,7.0,22.0,79,0.00,,SKC,0.00,VWS V14.01,2013-07-04 14:16:00,
2013-07-04 10:21:00,84.2,77.0,30.09,SE,126,10.0,22.0,79,0.00,,SKC,0.00,VWS V14.01,2013-07-04 14:21:00,
2013-07-04 10:26:00,84.6,77.0,30.09,NE,43,10.0,22.0,78,0.00,,SKC,0.00,VWS V14.01,2013-07-04 14:26:00,
2013-07-04 10:31:00,85.0,77.0,30.09,SE,129,9.0,11.0,77,0.00,,SKC,0.00,VWS V14.01,2013-07-04 14:31:00,
2013-07-04 10:36:00,84.7,76.3,30.09,SE,137,3.0,18.0,76,0.00,,SKC,0.00,VWS V14.01,2013-07-04 14:36:00,
2013-07-04 10:41:00,84.7,76.7,30.09,ESE,119,13.0,18.0,77,0.00,,SKC,0.00,VWS V14.01,2013-07-04 14:41:00,
2013-07-04 10:46:00,84.6,75.8,30.09,East,95,12.0,18.0,75,0.00,,SKC,0.00,VWS V14.01,2013-07-04 14:46:00,
2013-07-04 10:51:00,84.5,76.1,30.09,SE,127,3.0,18.0,76,0.00,,SKC,0.00,VWS V14.01,2013-07-04 14:51:00,
2013-07-04 10:56:00,84.9,76.1,30.09,ESE,110,11.0,18.0,75,0.00,,SKC,0.00,VWS V14.01,2013-07-04 14:56:00,
2013-07-04 11:01:00,84.5,76.1,30.09,SE,126,5.0,13.0,76,0.00,,SKC,0.00,VWS V14.01,2013-07-04 15:01:00,
2013-07-04 11:06:00,84.5,76.1,30.09,SE,143,7.0,13.0,76,0.00,,SKC,0.00,VWS V14.01,2013-07-04 15:06:00,
2013-07-04 11:11:00,85.4,77.0,30.09,ESE,120,3.0,13.0,76,0.00,,SKC,0.00,VWS V14.01,2013-07-04 15:11:00,
2013-07-04 11:16:00,85.6,76.8,30.09,ESE,121,6.0,15.0,75,0.00,,SKC,0.00,VWS V14.01,2013-07-04 15:16:00,
2013-07-04 11:21:00,86.2,76.1,30.09,ESE,114,7.0,15.0,72,0.00,,SKC,0.00,VWS V14.01,2013-07-04 15:21:00,
2013-07-04 11:26:00,86.6,76.9,30.09,NE,43,6.0,15.0,73,0.00,,SKC,0.00,VWS V14.01,2013-07-04 15:26:00,
2013-07-04 11:31:00,86.7,76.6,30.09,SE,130,1.0,11.0,72,0.00,,SKC,0.00,VWS V14.01,2013-07-04 15:31:00,
2013-07-04 11:36:00,87.1,77.0,30.09,SSE,149,3.0,11.0,72,0.00,,SKC,0.00,VWS V14.01,2013-07-04 15:36:00,
2013-07-04 11:41:00,87.2,76.2,30.09,SSE,148,8.0,13.0,70,0.00,,SKC,0.00,VWS V14.01,2013-07-04 15:41:00,
2013-07-04 11:46:00,86.8,75.4,30.09,SE,136,5.0,15.0,69,0.00,,SKC,0.00,VWS V14.01,2013-07-04 15:46:00,
2013-07-04 11:51:00,87.3,76.3,30.09,ESE,103,9.0,15.0,70,0.00,,SKC,0.00,VWS V14.01,2013-07-04 15:51:00,
2013-07-04 11:56:00,87.1,75.7,30.09,ESE,106,12.0,20.0,69,0.00,,SKC,0.00,VWS V14.01,2013-07-04 15:56:00,
2013-07-04 12:01:00,87.3,76.3,30.09,ESE,114,7.0,7.0,70,0.00,,SKC,0.00,VWS V14.01,2013-07-04 16:01:00,
2013-07-04 12:06:00,87.5,76.1,30.09,NE,51,6.0,11.0,69,0.00,,SKC,0.00,VWS V14.01,2013-07-04 16:06:00,
2013-07-04 12:11:00,87.7,75.8,30.09,East,88,8.0,14.0,68,0.00,,SKC,0.00,VWS V14.01,2013-07-04 16:11:00,
2013-07-04 12:16:00,87.8,75.0,30.09,ENE,60,10.0,16.0,66,0.00,,SKC,0.00,VWS V14.01,2013-07-04 16:16:00,
2013-07-04 12:21:00,88.3,75.1,30.09,East,90,6.0,16.0,65,0.00,,SKC,0.00,VWS V14.01,2013-07-04 16:21:00,
2013-07-04 12:26:00,88.8,76.0,30.08,East,90,7.0,16.0,66,0.00,,SKC,0.00,VWS V14.01,2013-07-04 16:26:00,
2013-07-04 12:31:00,88.7,75.4,30.08,ESE,115,10.0,11.0,65,0.00,,SKC,0.00,VWS V14.01,2013-07-04 16:31:00,
2013-07-04 12:36:00,88.2,75.4,30.08,ESE,108,7.0,16.0,66,0.00,,SKC,0.00,VWS V14.01,2013-07-04 16:36:00,
2013-07-04 12:41:00,88.1,75.3,30.08,East,83,3.0,16.0,66,0.00,,SKC,0.00,VWS V14.01,2013-07-04 16:41:00,
2013-07-04 12:46:00,88.3,75.5,30.08,ENE,61,6.0,16.0,66,0.00,,SKC,0.00,VWS V14.01,2013-07-04 16:46:00,
2013-07-04 12:51:00,88.7,75.9,30.08,ESE,105,6.0,16.0,66,0.00,,SKC,0.00,VWS V14.01,2013-07-04 16:51:00,
2013-07-04 12:56:00,88.6,76.2,30.08,ESE,105,7.0,16.0,67,0.00,,SKC,0.00,VWS V14.01,2013-07-04 16:56:00,
2013-07-04 13:01:00,88.4,76.1,30.08,SSE,153,7.0,11.0,67,0.00,,SKC,0.00,VWS V14.01,2013-07-04 17:01:00,
2013-07-04 13:06:00,88.1,75.8,30.08,SSE,167,6.0,11.0,67,0.00,,SKC,0.00,VWS V14.01,2013-07-04 17:06:00,
2013-07-04 13:11:00,88.4,75.6,30.08,ESE,109,11.0,12.0,66,0.00,,SKC,0.00,VWS V14.01,2013-07-04 17:11:00,
2013-07-04 13:16:00,89.1,75.8,30.08,ESE,118,8.0,14.0,65,0.00,,SKC,0.00,VWS V14.01,2013-07-04 17:16:00,
2013-07-04 13:21:00,88.9,76.5,30.08,East,92,7.0,14.0,67,0.00,,SKC,0.00,VWS V14.01,2013-07-04 17:21:00,
2013-07-04 13:26:00,89.6,77.2,30.07,SE,146,11.0,14.0,67,0.00,,SKC,0.00,VWS V14.01,2013-07-04 17:26:00,
2013-07-04 13:31:00,89.8,76.0,30.07,East,83,9.0,12.0,64,0.00,,SKC,0.00,VWS V14.01,2013-07-04 17:31:00,
2013-07-04 13:36:00,90.4,76.6,30.07,East,83,11.0,16.0,64,0.00,,SKC,0.00,VWS V14.01,2013-07-04 17:36:00,
2013-07-04 13:41:00,89.3,76.0,30.07,SE,146,9.0,19.0,65,0.00,,SKC,0.00,VWS V14.01,2013-07-04 17:41:00,
2013-07-04 13:46:00,89.0,75.7,30.07,SE,134,6.0,19.0,65,0.00,,SKC,0.00,VWS V14.01,2013-07-04 17:46:00,
2013-07-04 13:51:00,89.1,75.3,30.07,SE,129,8.0,19.0,64,0.00,,SKC,0.00,VWS V14.01,2013-07-04 17:51:00,
2013-07-04 13:56:00,89.5,75.7,30.07,SE,125,4.0,19.0,64,0.00,,SKC,0.00,VWS V14.01,2013-07-04 17:56:00,
2013-07-04 14:01:00,90.3,75.5,30.07,East,84,11.0,14.0,62,0.00,,SKC,0.00,VWS V14.01,2013-07-04 18:01:00,
2013-07-04 14:06:00,90.1,75.8,30.06,ESE,114,2.0,15.0,63,0.00,,SKC,0.00,VWS V14.01,2013-07-04 18:06:00,
2013-07-04 14:11:00,90.5,76.2,30.06,East,91,10.0,15.0,63,0.00,,SKC,0.00,VWS V14.01,2013-07-04 18:11:00,
2013-07-04 14:16:00,90.2,74.9,30.06,East,101,12.0,15.0,61,0.00,,SKC,0.00,VWS V14.01,2013-07-04 18:16:00,
2013-07-04 14:21:00,89.9,75.1,30.06,East,97,10.0,15.0,62,0.00,,SKC,0.00,VWS V14.01,2013-07-04 18:21:00,
2013-07-04 14:26:00,89.5,74.8,30.06,ESE,116,11.0,15.0,62,0.00,,SKC,0.00,VWS V14.01,2013-07-04 18:26:00,
2013-07-04 14:31:00,89.1,74.4,30.05,East,92,5.0,12.0,62,0.00,,SKC,0.00,VWS V14.01,2013-07-04 18:31:00,
2013-07-04 14:36:00,89.0,75.2,30.05,SE,142,5.0,12.0,64,0.00,,SKC,0.00,VWS V14.01,2013-07-04 18:36:00,
2013-07-04 14:41:00,89.1,74.4,30.05,ESE,123,7.0,12.0,62,0.00,,SKC,0.00,VWS V14.01,2013-07-04 18:41:00,
2013-07-04 14:46:00,89.3,73.6,30.05,ESE,117,11.0,13.0,60,0.00,,SKC,0.00,VWS V14.01,2013-07-04 18:46:00,
2013-07-04 14:51:00,89.6,74.9,30.05,SSE,168,6.0,13.0,62,0.00,,SKC,0.00,VWS V14.01,2013-07-04 18:51:00,
2013-07-04 14:56:00,89.8,74.1,30.06,South,178,4.0,13.0,60,0.00,,SKC,0.00,VWS V14.01,2013-07-04 18:56:00,
2013-07-04 15:02:00,90.2,74.4,30.06,SSW,207,4.0,9.0,60,0.00,,SKC,0.00,VWS V14.01,2013-07-04 19:02:00,
2013-07-04 15:07:00,90.2,74.9,30.05,SE,127,2.0,10.0,61,0.00,,SKC,0.00,VWS V14.01,2013-07-04 19:07:00,
2013-07-04 15:12:00,90.3,73.0,30.05,ESE,114,6.0,10.0,57,0.00,,SKC,0.00,VWS V14.01,2013-07-04 19:12:00,
2013-07-04 15:17:00,90.1,73.8,30.05,NE,54,4.0,10.0,59,0.00,,SKC,0.00,VWS V14.01,2013-07-04 19:17:00,
2013-07-04 15:22:00,89.9,73.7,30.05,SE,130,5.0,10.0,59,0.00,,SKC,0.00,VWS V14.01,2013-07-04 19:22:00,
2013-07-04 15:27:00,89.6,73.4,30.05,SSE,149,6.0,11.0,59,0.00,,SKC,0.00,VWS V14.01,2013-07-04 19:27:00,
2013-07-04 15:32:00,89.4,73.7,30.05,SE,134,4.0,8.0,60,0.00,,SKC,0.00,VWS V14.01,2013-07-04 19:32:00,
2013-07-04 15:37:00,89.4,73.2,30.04,SE,126,4.0,11.0,59,0.00,,SKC,0.00,VWS V14.01,2013-07-04 19:37:00,
2013-07-04 15:42:00,89.4,73.7,30.04,ESE,108,4.0,12.0,60,0.00,,SKC,0.00,VWS V14.01,2013-07-04 19:42:00,
2013-07-04 15:47:00,89.2,72.5,30.04,ESE,111,5.0,12.0,58,0.00,,SKC,0.00,VWS V14.01,2013-07-04 19:47:00,
2013-07-04 15:52:00,89.4,72.7,30.04,North,355,4.0,12.0,58,0.00,,SKC,0.00,VWS V14.01,2013-07-04 19:52:00,
2013-07-04 15:57:00,89.0,76.2,30.04,West,263,4.0,12.0,66,0.00,,SKC,0.00,VWS V14.01,2013-07-04 19:57:00,
2013-07-04 16:02:00,87.0,76.9,30.04,WSW,253,0.0,2.0,72,0.00,,SKC,0.00,VWS V14.01,2013-07-04 20:02:00,
2013-07-04 16:07:00,86.4,76.7,30.04,South,184,2.0,5.0,73,0.00,,SKC,0.00,VWS V14.01,2013-07-04 20:07:00,
2013-07-04 16:12:00,85.7,76.1,30.04,WSW,244,1.0,6.0,73,0.00,,SKC,0.00,VWS V14.01,2013-07-04 20:12:00,
2013-07-04 16:17:00,85.0,76.2,30.04,WSW,244,3.0,7.0,75,0.00,,SKC,0.00,VWS V14.01,2013-07-04 20:17:00,
2013-07-04 16:22:00,84.5,75.3,30.04,WSW,251,6.0,8.0,74,0.00,,SKC,0.00,VWS V14.01,2013-07-04 20:22:00,
2013-07-04 16:27:00,84.4,75.6,30.04,SW,221,2.0,8.0,75,0.00,,SKC,0.00,VWS V14.01,2013-07-04 20:27:00,
2013-07-04 16:32:00,84.5,76.5,30.03,WNW,289,0.0,2.0,77,0.00,,SKC,0.00,VWS V14.01,2013-07-04 20:32:00,
2013-07-04 16:37:00,84.8,76.8,30.03,West,279,0.0,2.0,77,0.00,,SKC,0.00,VWS V14.01,2013-07-04 20:37:00,
2013-07-04 16:42:00,85.3,76.9,30.03,West,273,1.0,2.0,76,0.00,,SKC,0.00,VWS V14.01,2013-07-04 20:42:00,
2013-07-04 16:47:00,85.6,78.0,30.03,West,273,0.0,2.0,78,0.00,,SKC,0.00,VWS V14.01,2013-07-04 20:47:00,
2013-07-04 16:52:00,85.2,77.2,30.04,WSW,257,2.0,3.0,77,0.00,,SKC,0.00,VWS V14.01,2013-07-04 20:52:00,
2013-07-04 16:57:00,84.0,76.4,30.05,SW,219,4.0,5.0,78,0.00,,SKC,0.00,VWS V14.01,2013-07-04 20:57:00,
2013-07-04 17:02:00,83.6,76.8,30.05,South,190,1.0,2.0,80,0.00,,SKC,0.00,VWS V14.01,2013-07-04 21:02:00,
2013-07-04 17:07:00,83.5,77.1,30.03,SW,232,0.0,2.0,81,0.00,,SKC,0.00,VWS V14.01,2013-07-04 21:07:00,
2013-07-04 17:12:00,83.4,76.6,30.03,SSE,154,5.0,7.0,80,0.00,,SKC,0.00,VWS V14.01,2013-07-04 21:12:00,
2013-07-04 17:17:00,82.9,74.9,30.04,SSW,198,2.0,9.0,77,0.00,,SKC,0.00,VWS V14.01,2013-07-04 21:17:00,
2013-07-04 17:22:00,82.3,74.0,30.05,SSE,168,5.0,9.0,76,0.00,,SKC,0.00,VWS V14.01,2013-07-04 21:22:00,
2013-07-04 17:27:00,81.6,74.1,30.05,SW,221,2.0,9.0,78,0.00,,SKC,0.00,VWS V14.01,2013-07-04 21:27:00,
2013-07-04 17:32:00,81.0,73.5,30.04,WSW,249,0.0,1.0,78,0.00,,SKC,0.00,VWS V14.01,2013-07-04 21:32:00,
2013-07-04 17:37:00,81.0,73.9,30.04,SW,219,0.0,1.0,79,0.00,,SKC,0.00,VWS V14.01,2013-07-04 21:37:00,
2013-07-04 17:42:00,81.0,74.2,30.04,WSW,238,0.0,1.0,80,0.00,,SKC,0.00,VWS V14.01,2013-07-04 21:42:00,
2013-07-04 17:47:00,80.5,74.1,30.05,West,272,1.0,5.0,81,0.00,,SKC,0.00,VWS V14.01,2013-07-04 21:47:00,
2013-07-04 17:52:00,80.2,73.8,30.05,WSW,244,0.0,5.0,81,0.00,,SKC,0.00,VWS V14.01,2013-07-04 21:52:00,
2013-07-04 17:57:00,80.3,73.9,30.05,WSW,255,1.0,5.0,81,0.00,,SKC,0.00,VWS V14.01,2013-07-04 21:57:00,
2013-07-04 18:02:00,80.2,73.8,30.05,WSW,245,0.0,1.0,81,0.00,,SKC,0.00,VWS V14.01,2013-07-04 22:02:00,
2013-07-04 18:07:00,80.1,74.1,30.06,West,272,1.0,1.0,82,0.00,,SKC,0.00,VWS V14.01,2013-07-04 22:07:00,
2013-07-04 18:12:00,80.2,74.2,30.06,WSW,242,0.0,1.0,82,0.00,,SKC,0.00,VWS V14.01,2013-07-04 22:12:00,
2013-07-04 18:17:00,80.2,74.2,30.05,NW,306,0.0,2.0,82,0.00,,SKC,0.00,VWS V14.01,2013-07-04 22:17:00,
2013-07-04 18:22:00,80.4,74.4,30.05,WNW,288,1.0,2.0,82,0.00,,SKC,0.00,VWS V14.01,2013-07-04 22:22:00,
2013-07-04 18:27:00,80.5,74.5,30.06,WSW,242,0.0,2.0,82,0.00,,SKC,0.00,VWS V14.01,2013-07-04 22:27:00,
2013-07-04 18:32:00,80.2,74.6,30.06,WSW,252,2.0,2.0,83,0.00,,SKC,0.00,VWS V14.01,2013-07-04 22:32:00,
2013-07-04 18:37:00,79.7,75.2,30.06,WSW,257,0.0,4.0,86,0.00,,SKC,0.00,VWS V14.01,2013-07-04 22:37:00,
2013-07-04 18:42:00,79.4,74.8,30.06,SW,228,0.0,4.0,86,0.00,,SKC,0.00,VWS V14.01,2013-07-04 22:42:00,
2013-07-04 18:47:00,79.4,75.2,30.06,WSW,242,0.0,4.0,87,0.00,,SKC,0.00,VWS V14.01,2013-07-04 22:47:00,
2013-07-04 18:52:00,79.2,75.0,30.06,WNW,287,0.0,4.0,87,0.00,,SKC,0.00,VWS V14.01,2013-07-04 22:52:00,
2013-07-04 18:57:00,79.3,75.1,30.06,NNW,343,0.0,4.0,87,0.00,,SKC,0.00,VWS V14.01,2013-07-04 22:57:00,
2013-07-04 19:02:00,79.2,75.0,30.06,NNE,13,1.0,2.0,87,0.00,,SKC,0.00,VWS V14.01,2013-07-04 23:02:00,
2013-07-04 19:07:00,79.2,75.0,30.06,NNW,333,0.0,2.0,87,0.00,,SKC,0.00,VWS V14.01,2013-07-04 23:07:00,
2013-07-04 19:12:00,79.3,75.4,30.06,NNW,336,0.0,2.0,88,0.00,,SKC,0.00,VWS V14.01,2013-07-04 23:12:00,
2013-07-04 19:17:00,79.3,75.1,30.06,SSE,155,0.0,2.0,87,0.00,,SKC,0.00,VWS V14.01,2013-07-04 23:17:00,
2013-07-04 19:22:00,79.3,75.1,30.06,NE,40,0.0,2.0,87,0.00,,SKC,0.00,VWS V14.01,2013-07-04 23:22:00,
2013-07-04 19:27:00,79.1,74.9,30.06,SSE,150,0.0,2.0,87,0.00,,SKC,0.00,VWS V14.01,2013-07-04 23:27:00,
2013-07-04 19:32:00,79.1,75.2,30.06,NE,53,0.0,0.0,88,0.00,,SKC,0.00,VWS V14.01,2013-07-04 23:32:00,
2013-07-04 19:37:00,79.0,74.8,30.07,NE,53,0.0,0.0,87,0.00,,SKC,0.00,VWS V14.01,2013-07-04 23:37:00,
2013-07-04 19:42:00,79.2,75.0,30.07,West,280,0.0,0.0,87,0.00,,SKC,0.00,VWS V14.01,2013-07-04 23:42:00,
2013-07-04 19:47:00,79.4,75.2,30.08,West,281,0.0,0.0,87,0.00,,SKC,0.00,VWS V14.01,2013-07-04 23:47:00,
2013-07-04 19:52:00,79.5,75.3,30.08,West,281,0.0,0.0,87,0.00,,SKC,0.00,VWS V14.01,2013-07-04 23:52:00,
2013-07-04 19:57:00,79.5,74.9,30.07,NNW,335,0.0,0.0,86,0.00,,SKC,0.00,VWS V14.01,2013-07-04 23:57:00,
2013-07-04 20:02:00,79.3,74.8,30.07,NNW,336,0.0,0.0,86,0.00,,SKC,0.00,VWS V14.01,2013-07-05 00:02:00,
2013-07-04 20:07:00,79.2,74.7,30.07,WNW,287,0.0,0.0,86,0.00,,SKC,0.00,VWS V14.01,2013-07-05 00:07:00,
2013-07-04 20:12:00,79.2,74.7,30.07,WNW,298,0.0,0.0,86,0.00,,SKC,0.00,VWS V14.01,2013-07-05 00:12:00,
2013-07-04 20:17:00,79.1,74.6,30.08,WNW,298,0.0,0.0,86,0.00,,SKC,0.00,VWS V14.01,2013-07-05 00:17:00,
2013-07-04 20:22:00,79.1,74.6,30.08,NNW,340,0.0,0.0,86,0.00,,SKC,0.00,VWS V14.01,2013-07-05 00:22:00,
2013-07-04 20:27:00,79.0,74.5,30.08,NNW,345,0.0,0.0,86,0.00,,SKC,0.00,VWS V14.01,2013-07-05 00:27:00,
2013-07-04 20:32:00,78.8,74.6,30.08,North,351,0.0,0.0,87,0.00,,SKC,0.00,VWS V14.01,2013-07-05 00:32:00,
2013-07-04 20:37:00,78.6,74.4,30.08,NNW,333,3.0,3.0,87,0.00,,SKC,0.00,VWS V14.01,2013-07-05 00:37:00,
2013-07-04 20:42:00,78.5,74.7,30.08,NNW,342,6.0,7.0,88,0.00,,SKC,0.00,VWS V14.01,2013-07-05 00:42:00,
2013-07-04 20:47:00,78.3,74.5,30.08,North,11,3.0,7.0,88,0.01,,SKC,0.01,VWS V14.01,2013-07-05 00:47:00,
2013-07-04 20:52:00,78.1,74.6,30.08,NE,50,0.0,7.0,89,0.01,,SKC,0.01,VWS V14.01,2013-07-05 00:52:00,
2013-07-04 20:57:00,78.0,74.5,30.09,NNE,16,2.0,7.0,89,0.01,,SKC,0.01,VWS V14.01,2013-07-05 00:57:00,
2013-07-04 21:02:00,77.8,74.3,30.09,NE,35,2.0,4.0,89,0.01,,SKC,0.01,VWS V14.01,2013-07-05 01:02:00,
2013-07-04 21:07:00,77.7,74.5,30.09,NNE,19,2.0,5.0,90,0.01,,SKC,0.01,VWS V14.01,2013-07-05 01:07:00,
2013-07-04 21:12:00,77.6,74.4,30.10,NNW,338,1.0,5.0,90,0.01,,SKC,0.01,VWS V14.01,2013-07-05 01:12:00,
2013-07-04 21:17:00,77.6,74.4,30.10,NNW,336,0.0,5.0,90,0.01,,SKC,0.01,VWS V14.01,2013-07-05 01:17:00,
2013-07-04 21:22:00,77.5,74.7,30.10,NE,41,4.0,5.0,91,0.01,,SKC,0.01,VWS V14.01,2013-07-05 01:22:00,
2013-07-04 21:27:00,77.5,74.7,30.10,NW,326,1.0,5.0,91,0.01,,SKC,0.01,VWS V14.01,2013-07-05 01:27:00,
2013-07-04 21:32:00,77.3,74.5,30.10,NNE,24,0.0,5.0,91,0.01,,SKC,0.01,VWS V14.01,2013-07-05 01:32:00,
2013-07-04 21:37:00,77.2,74.4,30.11,NE,46,7.0,7.0,91,0.01,,SKC,0.01,VWS V14.01,2013-07-05 01:37:00,
2013-07-04 21:42:00,77.2,74.4,30.11,North,351,1.0,7.0,91,0.01,,SKC,0.01,VWS V14.01,2013-07-05 01:42:00,
2013-07-04 21:47:00,77.1,74.3,30.10,NNE,24,1.0,7.0,91,0.01,,SKC,0.01,VWS V14.01,2013-07-05 01:47:00,
2013-07-04 21:52:00,77.1,74.3,30.10,NE,45,0.0,7.0,91,0.01,,SKC,0.01,VWS V14.01,2013-07-05 01:52:00,
2013-07-04 21:57:00,77.0,74.2,30.10,NE,42,0.0,7.0,91,0.01,,SKC,0.01,VWS V14.01,2013-07-05 01:57:00,
2013-07-04 22:02:00,77.0,74.2,30.11,NE,48,2.0,4.0,91,0.00,,SKC,0.01,VWS V14.01,2013-07-05 02:02:00,
2013-07-04 22:07:00,77.0,74.2,30.11,NNE,28,0.0,4.0,91,0.00,,SKC,0.01,VWS V14.01,2013-07-05 02:07:00,
2013-07-04 22:12:00,76.9,74.1,30.11,NW,320,1.0,4.0,91,0.00,,SKC,0.01,VWS V14.01,2013-07-05 02:12:00,
2013-07-04 22:17:00,76.9,74.1,30.11,ENE,61,2.0,4.0,91,0.00,,SKC,0.01,VWS V14.01,2013-07-05 02:17:00,
2013-07-04 22:22:00,76.9,74.1,30.11,NE,44,3.0,4.0,91,0.00,,SKC,0.01,VWS V14.01,2013-07-05 02:22:00,
2013-07-04 22:27:00,76.9,74.1,30.12,NE,44,0.0,5.0,91,0.00,,SKC,0.01,VWS V14.01,2013-07-05 02:27:00,
2013-07-04 22:32:00,76.9,74.1,30.12,NE,50,1.0,4.0,91,0.00,,SKC,0.01,VWS V14.01,2013-07-05 02:32:00,
2013-07-04 22:37:00,76.9,74.1,30.12,NNW,329,0.0,4.0,91,0.00,,SKC,0.01,VWS V14.01,2013-07-05 02:37:00,
2013-07-04 22:42:00,76.8,74.0,30.12,NE,38,1.0,4.0,91,0.00,,SKC,0.01,VWS V14.01,2013-07-05 02:42:00,
2013-07-04 22:47:00,76.8,74.0,30.12,NE,37,2.0,4.0,91,0.00,,SKC,0.01,VWS V14.01,2013-07-05 02:47:00,
2013-07-04 22:52:00,76.8,74.0,30.12,NE,37,0.0,4.0,91,0.00,,SKC,0.01,VWS V14.01,2013-07-05 02:52:00,
2013-07-04 22:57:00,76.7,73.9,30.12,NE,37,0.0,4.0,91,0.00,,SKC,0.01,VWS V14.01,2013-07-05 02:57:00,
2013-07-04 23:02:00,76.7,73.9,30.13,NE,49,1.0,2.0,91,0.00,,SKC,0.01,VWS V14.01,2013-07-05 03:02:00,
2013-07-04 23:07:00,76.6,73.8,30.13,NE,56,1.0,5.0,91,0.00,,SKC,0.01,VWS V14.01,2013-07-05 03:07:00,
2013-07-04 23:12:00,76.6,73.8,30.12,NE,55,1.0,5.0,91,0.00,,SKC,0.01,VWS V14.01,2013-07-05 03:12:00,
2013-07-04 23:17:00,76.6,73.8,30.12,NE,39,0.0,5.0,91,0.00,,SKC,0.01,VWS V14.01,2013-07-05 03:17:00,
2013-07-04 23:22:00,76.5,73.7,30.12,NE,42,0.0,5.0,91,0.00,,SKC,0.01,VWS V14.01,2013-07-05 03:22:00,
2013-07-04 23:27:00,76.5,73.7,30.12,NE,55,1.0,5.0,91,0.00,,SKC,0.01,VWS V14.01,2013-07-05 03:27:00,
2013-07-04 23:32:00,76.5,73.7,30.12,NE,49,2.0,2.0,91,0.00,,SKC,0.01,VWS V14.01,2013-07-05 03:32:00,
2013-07-04 23:37:00,76.6,73.8,30.12,NE,48,2.0,2.0,91,0.00,,SKC,0.01,VWS V14.01,2013-07-05 03:37:00,
2013-07-04 23:42:00,76.6,73.8,30.12,NE,37,0.0,2.0,91,0.00,,SKC,0.01,VWS V14.01,2013-07-05 03:42:00,
2013-07-04 23:47:00,76.7,73.9,30.12,NE,53,0.0,5.0,91,0.00,,SKC,0.01,VWS V14.01,2013-07-05 03:47:00,
2013-07-04 23:52:00,76.7,73.9,30.12,NE,51,1.0,5.0,91,0.00,,SKC,0.01,VWS V14.01,2013-07-05 03:52:00,
2013-07-04 23:57:00,76.8,74.0,30.12,NNE,29,0.0,5.0,91,0.00,,SKC,0.01,VWS V14.01,2013-07-05 03:57:00,